Regional Weather Roundup
Issued by NWS

Home | Current Version | Previous Version | Text Only | Print | Product List | Glossary On
Versions: 1 2 3 4 5 6 7 8 9 10 11 12 13 14 15 16 17 18 19 20 21 22 23 24 25 26 27 28 29 30 31 32 33 34 35 36 37 38 39 40 41 42 43 44 45 46 47 48 49 50
381
ASUS45 KSLC 192010
RWRUT

UTAH REGIONAL WEATHER ROUNDUP
NATIONAL WEATHER SERVICE SALT LAKE CITY UT
200 PM MDT THU OCT 19 2017

UTZ001>011-023>025-192100-

NORTHERN UTAH

CITY           SKY/WX    TMP DP  RH WIND       PRES   REMARKS
BRIGHAM CITY     N/A     67  18  15 CALM      29.93F
DUGWAY         PTSUNNY   71  28  20 S10       29.98F
HILL AFB         N/A     69  21  16 S9        29.94F
LOGAN            N/A     66  22  18 VRB3      29.93F
OGDEN            N/A     69  23  17 S6        29.93F
SALT LAKE CITY   N/A     72  30  21 VRB3      29.91F
TOOELE VALLEY    N/A     64  30  27 N6        29.93F
WENDOVER         N/A     58  25  28 E7        29.92F
WEST JORDAN      N/A     72  32  23 SE17      29.93F

$$

UTZ011>015-024>027-192100-

CENTRAL/NORTHEAST UTAH

CITY           SKY/WX    TMP DP  RH WIND       PRES   REMARKS
PROVO AIRPORT    N/A     69  35  28 VRB5      29.94F
MOAB/CANYONLAN CLOUDY    72  20  14 SE8       29.97F
DELTA            N/A     72  32  23 S8        29.95F
PRICE            N/A     67  18  15 S7        30.03F
RICHFIELD      MOSUNNY   72  36  26 SW8G21    29.96F
ROOSEVELT        N/A     64  19  17 E6        30.04F
VERNAL           N/A     63  17  17 SE6       30.03F

$$

UTZ013>016-019>022-027-192100-

SOUTHERN UTAH

CITY           SKY/WX    TMP DP  RH WIND       PRES   REMARKS
BRYCE CANYON     N/A     64  33  31 SE18G25   30.12F
CEDAR CITY     CLOUDY    72  34  24 SW15G23   29.98F
MILFORD          N/A     70  38  31 S16       29.96F
ST GEORGE        N/A     73  34  23 S3        29.88F
HANKSVILLE       N/A     72  19  14 SE5       30.00F
KANAB          SUNNY     79  32  18 S15       30.00F
BLANDING         N/A     64  20  19 CALM      30.16F

$$

REGIONAL REPORTS     COLORADO/ARIZONA

CITY           SKY/WX    TMP DP  RH WIND       PRES   REMARKS
CRAIG, CO        N/A     72  19  13 W12       30.04F
GRAND JUNCTION   N/A     66  20  17 W6        30.02F
RIFLE, CO        N/A     70  18  13 CALM      30.02F
MONTROSE, CO     N/A     68  20  16 N8        30.05F
CORTEZ, CO     PTSUNNY   69  28  21 SW12      30.09F
COLORADO CITY    N/A     79  34  19 SW8       29.99F
PAGE, AZ         N/A     70  33  25 NW7       29.96F
GRAND CANYON   PTSUNNY   71  31  22 SW9G18    30.09F
KINGMAN, AZ      N/A     84  35  17 SW16G24   29.91F
FLAGSTAFF, AZ    N/A     67  30  25 SW13G23   30.12F

$$

REGIONAL REPORTS    NEVADA/IDAHO/WYOMING

CITY           SKY/WX    TMP DP  RH WIND       PRES   REMARKS
LAS VEGAS, NV    N/A     85  21   9 E8        29.82F
ELY, NY          N/A     71  17  12 SW15G21   29.98F
ELKO, NV         N/A     67  16  14 S5        29.91F
POCATELLO, ID    N/A     21  -5  31 W6        29.88F WCI  13
BURLEY, ID       N/A     74   9   8 SE3       29.83F
FORT BRIDGER,    N/A     64  12  13 E6        30.07F
EVANSTON, WY     N/A     67  17  14 SW16      30.03F
ROCK SPRINGS,    N/A     64   8  11 W6        30.04F
KEMMERER, WY     N/A     64  12  13 S3        30.05F

$$




USA.gov is the U.S. government's official web portal to all federal, state and local government web resources and services.